| time (UTC) | temp F | wind direction | speed knots | gust knots | rain 1hr in | rain 24hr in | rain mn in | humidity % | barometer mb |
| 20260906231401 | 89 | 323 | 7.0 | 7.8 | 0.00 | 0.00 | 0.00 | 100 | |
| 20260906230901 | 90 | 295 | 0.0 | 2.6 | 0.00 | 0.00 | 0.00 | 100 | |
| 20260906230401 | 91 | 295 | 0.0 | 7.8 | 0.00 | 0.00 | 0.00 | 100 | |
| 20260906225901 | 90 | 284 | 0.0 | 6.1 | 0.00 | 0.00 | 0.00 | 100 | |
| 20260906225401 | 91 | 322 | 4.3 | 5.2 | 0.00 | 0.00 | 0.00 | 100 | |
| 20260906224901 | 90 | 291 | 0.0 | 2.6 | 0.00 | 0.00 | 0.00 | 100 | |
| 20260906224401 | 89 | 260 | 0.0 | 0.0 | 0.00 | 0.00 | 0.00 | 100 | |
| 20260906223901 | 89 | 260 | 0.0 | 5.2 | 0.00 | 0.00 | 0.00 | 100 | |
| 20260906223401 | 90 | 239 | 0.0 | 5.2 | 0.00 | 0.00 | 0.00 | 100 | |
| 20260906222901 | 90 | 320 | 2.6 | 11.3 | 0.00 | 0.00 | 0.00 | 100 | |
| 20260906222401 | 87 | 358 | 7.0 | 7.0 | 0.00 | 0.00 | 0.00 | 100 | |
| 20260906221901 | 88 | 12 | 2.6 | 23.5 | 0.00 | 0.00 | 0.00 | 100 | |
| 20260906221401 | 87 | 54 | 0.0 | 8.7 | 0.00 | 0.00 | 0.00 | 100 | |
| 20260906220901 | 89 | 12 | 6.1 | 7.0 | 0.00 | 0.00 | 0.00 | 100 | |
| 20260906220401 | 91 | 358 | 2.6 | 7.0 | 0.00 | 0.00 | 0.00 | 100 | |
| 20260906215901 | 92 | 358 | 6.1 | 7.0 | 0.00 | 0.00 | 0.00 | 100 | |
| 20260906215401 | 92 | 130 | 0.0 | 6.1 | 0.00 | 0.00 | 0.00 | 100 | |
| 20260906214901 | 93 | 295 | 0.0 | 0.0 | 0.00 | 0.00 | 0.00 | 100 | |
| 20260906214401 | 91 | 295 | 0.0 | 0.0 | 0.00 | 0.00 | 0.00 | 100 | |
| 20260906213901 | 92 | 295 | 0.0 | 6.1 | 0.00 | 0.00 | 0.00 | 100 | |
| 20260906213401 | 93 | 203 | 0.0 | 4.3 | 0.00 | 0.00 | 0.00 | 100 | |
| 20260906212901 | 94 | 140 | 0.0 | 0.0 | 0.00 | 0.00 | 0.00 | 100 | |
| 20260906212401 | 90 | 140 | 0.0 | 5.2 | 0.00 | 0.00 | 0.00 | 100 | |
| 20260906211901 | 89 | 113 | 0.0 | 2.6 | 0.00 | 0.00 | 0.00 | 100 | |
| 20260906211401 | 92 | 142 | 0.0 | 0.0 | 0.00 | 0.00 | 0.00 | 100 | |
| 20260906210901 | 95 | 142 | 0.0 | 0.0 | 0.00 | 0.00 | 0.00 | 100 | |
| 20260906210401 | 93 | 142 | 0.0 | 4.3 | 0.00 | 0.00 | 0.00 | 100 | |
| 20260906205902 | 92 | 157 | 0.0 | 6.1 | 0.00 | 0.00 | 0.00 | 100 | |
| 20260906205401 | 91 | 94 | 0.0 | 9.6 | 0.00 | 0.00 | 0.00 | 100 | |
| 20260906204901 | 89 | 358 | 6.1 | 7.0 | 0.00 | 0.00 | 0.00 | 100 | |
| 20260906204401 | 91 | 198 | 0.0 | 0.0 | 0.00 | 0.00 | 0.00 | 100 | |
| 20260906203901 | 92 | 198 | 0.0 | 6.1 | 0.00 | 0.00 | 0.00 | 100 | |
| 20260906203401 | 89 | 358 | 1.7 | 8.7 | 0.00 | 0.00 | 0.00 | 100 | |
| 20260906202901 | 90 | 87 | 4.3 | 5.2 | 0.00 | 0.00 | 0.00 | 100 | |
| 20260906202401 | 93 | 151 | 0.0 | 7.0 | 0.00 | 0.00 | 0.00 | 100 | |
| 20260906201901 | 91 | 109 | 4.3 | 16.5 | 0.00 | 0.00 | 0.00 | 100 | |
| 20260906201401 | 89 | 94 | 2.6 | 4.3 | 0.00 | 0.00 | 0.00 | 100 | |
| 20260906200901 | 89 | 85 | 0.9 | 9.6 | 0.00 | 0.00 | 0.00 | 100 | |
| 20260906200401 | 89 | 112 | 4.3 | 14.8 | 0.00 | 0.00 | 0.00 | 100 | |
| 20260906195901 | 88 | 35 | 0.0 | 7.8 | 0.00 | 0.00 | 0.00 | 100 | |
| 20260906195401 | 94 | 135 | 0.0 | 6.1 | 0.00 | 0.00 | 0.00 | 100 | |
| 20260906194901 | 95 | 209 | 0.0 | 7.0 | 0.00 | 0.00 | 0.00 | 100 | |
| 20260906194401 | 93 | 198 | 4.3 | 10.4 | 0.00 | 0.00 | 0.00 | 100 | |
| 20260906193901 | 91 | 142 | 2.6 | 7.8 | 0.00 | 0.00 | 0.00 | 100 | |
| 20260906193401 | 93 | 118 | 0.0 | 7.8 | 0.00 | 0.00 | 0.00 | 100 | |
| 20260906192901 | 94 | 149 | 0.0 | 5.2 | 0.00 | 0.00 | 0.00 | 100 | |
| 20260906192401 | 91 | 71 | 0.0 | 0.0 | 0.00 | 0.00 | 0.00 | 100 | |
| 20260906191901 | 90 | 71 | 0.0 | 3.5 | 0.00 | 0.00 | 0.00 | 100 | |
| 20260906191401 | 87 | 71 | 0.0 | 13.9 | 0.00 | 0.00 | 0.00 | 100 | |
| 20260906190901 | 89 | 81 | 0.0 | 7.0 | 0.00 | 0.00 | 0.00 | 100 | |
| 20260906190401 | 90 | 120 | 3.5 | 6.1 | 0.00 | 0.00 | 0.00 | 100 | |
| 20260906185901 | 89 | 153 | 0.0 | 0.0 | 0.00 | 0.00 | 0.00 | 100 | |
| 20260906185401 | 92 | 153 | 0.0 | 3.5 | 0.00 | 0.00 | 0.00 | 100 | |
| 20260906184901 | 91 | 171 | 0.0 | 0.0 | 0.00 | 0.00 | 0.00 | 100 | |
| 20260906184401 | 91 | 171 | 0.0 | 5.2 | 0.00 | 0.00 | 0.00 | 100 | |
| 20260906183901 | 92 | 125 | 0.0 | 7.8 | 0.00 | 0.00 | 0.00 | 100 | |
| 20260906183401 | 91 | 182 | 6.1 | 7.0 | 0.00 | 0.00 | 0.00 | 100 | |
| 20260906182901 | 87 | 119 | 0.0 | 3.5 | 0.00 | 0.00 | 0.00 | 100 | |
| 20260906182401 | 89 | 358 | 0.0 | 5.2 | 0.00 | 0.00 | 0.00 | 100 | |
| 20260906181901 | 87 | 137 | 0.0 | 4.3 | 0.00 | 0.00 | 0.00 | 100 | |
| 20260906181401 | 90 | 102 | 3.5 | 7.8 | 0.00 | 0.00 | 0.00 | 100 | |
| 20260906180901 | 88 | 358 | 1.7 | 5.2 | 0.00 | 0.00 | 0.00 | 100 | |
| 20260906180401 | 87 | 101 | 0.0 | 5.2 | 0.00 | 0.00 | 0.00 | 100 | |
| 20260906175901 | 87 | 157 | 5.2 | 7.8 | 0.00 | 0.00 | 0.00 | 100 | |
| 20260906175401 | 86 | 160 | 0.0 | 0.0 | 0.00 | 0.00 | 0.00 | 100 | |
| 20260906174901 | 88 | 160 | 0.0 | 3.5 | 0.00 | 0.00 | 0.00 | 100 | |
| 20260906174401 | 87 | 154 | 0.0 | 5.2 | 0.00 | 0.00 | 0.00 | 100 | |
| 20260906173901 | 87 | 150 | 0.0 | 7.0 | 0.00 | 0.00 | 0.00 | 100 | |
| 20260906173401 | 85 | 105 | 0.0 | 6.1 | 0.00 | 0.00 | 0.00 | 100 | |
| 20260906172901 | 87 | 160 | 3.5 | 6.1 | 0.00 | 0.00 | 0.00 | 100 | |
| 20260906172401 | 86 | 139 | 4.3 | 7.0 | 0.00 | 0.00 | 0.00 | 100 | |
| 20260906171901 | 86 | 29 | 0.0 | 5.2 | 0.00 | 0.00 | 0.00 | 100 | |
| 20260906171401 | 83 | 108 | 0.0 | 6.1 | 0.00 | 0.00 | 0.00 | 100 | |
| 20260906170901 | 82 | 358 | 0.0 | 0.0 | 0.00 | 0.00 | 0.00 | 100 | |
| 20260906170402 | 82 | 358 | 0.0 | 0.0 | 0.00 | 0.00 | 0.00 | 100 | |
| 20260906165901 | 84 | 358 | 0.0 | 6.1 | 0.00 | 0.00 | 0.00 | 100 | |
| 20260906165401 | 81 | 37 | 1.7 | 3.5 | 0.00 | 0.00 | 0.00 | 100 | |
| 20260906164901 | 80 | 71 | 0.0 | 3.5 | 0.00 | 0.00 | 0.00 | 100 | |
| 20260906164401 | 79 | 45 | 0.9 | 4.3 | 0.00 | 0.00 | 0.00 | 100 | |
| 20260906163901 | 81 | 115 | 0.0 | 1.7 | 0.00 | 0.00 | 0.00 | 100 | |
| 20260906163401 | 83 | 77 | 0.0 | 4.3 | 0.00 | 0.00 | 0.00 | 100 | |
| 20260906162901 | 80 | 82 | 0.0 | 7.0 | 0.00 | 0.00 | 0.00 | 100 | |
| 20260906162401 | 81 | 95 | 3.5 | 7.0 | 0.00 | 0.00 | 0.00 | 100 | |
| 20260906161901 | 81 | 154 | 4.3 | 5.2 | 0.00 | 0.00 | 0.00 | 100 | |
| 20260906161401 | 81 | 113 | 3.5 | 7.0 | 0.00 | 0.00 | 0.00 | 100 | |
| 20260906160901 | 80 | 88 | 4.3 | 5.2 | 0.00 | 0.00 | 0.00 | 100 | |
| 20260906160402 | 81 | 104 | 2.6 | 6.1 | 0.00 | 0.00 | 0.00 | 100 | |
| 20260906155901 | 83 | 98 | 6.1 | 6.1 | 0.00 | 0.00 | 0.00 | 100 | |
| 20260906155401 | 80 | 102 | 2.6 | 6.1 | 0.00 | 0.00 | 0.00 | 100 | |
| 20260906154901 | 80 | 122 | 2.6 | 6.1 | 0.00 | 0.00 | 0.00 | 100 | |
| 20260906154402 | 80 | 97 | 5.2 | 7.0 | 0.00 | 0.00 | 0.00 | 100 | |
| 20260906153902 | 80 | 42 | 0.0 | 7.0 | 0.00 | 0.00 | 0.00 | 100 | |
| 20260906153402 | 79 | 157 | 0.0 | 0.0 | 0.00 | 0.00 | 0.00 | 100 | |
| 20260906152902 | 81 | 157 | 0.0 | 0.0 | 0.00 | 0.00 | 0.00 | 100 | |
| 20260906152402 | 83 | 157 | 0.0 | 0.0 | 0.00 | 0.00 | 0.00 | 100 | |
| 20260906151902 | 85 | 157 | 0.0 | 0.0 | 0.00 | 0.00 | 0.00 | 100 | |
| 20260906151402 | 86 | 157 | 0.0 | 0.0 | 0.00 | 0.00 | 0.00 | 100 | |
| 20260906150902 | 82 | 157 | 0.0 | 0.0 | 0.00 | 0.00 | 0.00 | 100 | |
| 20260906150402 | 83 | 157 | 0.0 | 0.0 | 0.00 | 0.00 | 0.00 | 100 | |
| 20260906145902 | 84 | 157 | 0.0 | 0.0 | 0.00 | 0.00 | 0.00 | 100 | |
| 20260906145402 | 83 | 157 | 0.0 | 5.2 | 0.00 | 0.00 | 0.00 | 100 | |
| 20260906144902 | 82 | 161 | 2.6 | 5.2 | 0.00 | 0.00 | 0.00 | 100 | |
| 20260906144402 | 76 | 37 | 0.0 | 5.2 | 0.00 | 0.00 | 0.00 | 100 | |
| 20260906143902 | 71 | 106 | 5.2 | 6.1 | 0.00 | 0.00 | 0.00 | 100 | |
| 20260906143402 | 73 | 52 | 3.5 | 7.0 | 0.00 | 0.00 | 0.00 | 100 | |
| 20260906142902 | 74 | 61 | 5.2 | 7.8 | 0.00 | 0.00 | 0.00 | 100 | |
| 20260906142402 | 74 | 80 | 5.2 | 7.0 | 0.00 | 0.00 | 0.00 | 100 | |
| 20260906141902 | 72 | 78 | 2.6 | 5.2 | 0.00 | 0.00 | 0.00 | 100 | |
| 20260906141402 | 69 | 33 | 3.5 | 7.8 | 0.00 | 0.00 | 0.00 | 100 | |
| 20260906140902 | 72 | 90 | 2.6 | 6.1 | 0.00 | 0.00 | 0.00 | 100 | |
| 20260906140402 | 71 | 132 | 2.6 | 7.0 | 0.00 | 0.00 | 0.00 | 100 | |
| 20260906135902 | 71 | 102 | 3.5 | 7.0 | 0.00 | 0.00 | 0.00 | 100 | |
| 20260906135402 | 71 | 64 | 3.5 | 7.0 | 0.00 | 0.00 | 0.00 | 100 | |
| 20260906134902 | 69 | 36 | 2.6 | 5.2 | 0.00 | 0.00 | 0.00 | 100 | |
| 20260906134402 | 69 | 43 | 1.7 | 6.1 | 0.00 | 0.00 | 0.00 | 100 | |
| 20260906133902 | 68 | 53 | 1.7 | 4.3 | 0.00 | 0.00 | 0.00 | 100 | |
| 20260906133402 | 65 | 60 | 0.0 | 0.0 | 0.00 | 0.00 | 0.00 | 100 | |
| 20260906132902 | 62 | 60 | 0.0 | 0.0 | 0.00 | 0.00 | 0.00 | 100 | |
| 20260906132402 | 60 | 60 | 0.0 | 0.0 | 0.00 | 0.00 | 0.00 | 100 | |
| 20260906131902 | 59 | 60 | 0.0 | 0.0 | 0.00 | 0.00 | 0.00 | 100 | |
| 20260906131402 | 58 | 60 | 0.0 | 0.0 | 0.00 | 0.00 | 0.00 | 100 | |
| 20260906130902 | 58 | 60 | 0.0 | 0.0 | 0.00 | 0.00 | 0.00 | 100 | |
| 20260906130402 | 58 | 60 | 0.0 | 0.0 | 0.00 | 0.00 | 0.00 | 100 | |
| 20260906125902 | 58 | 60 | 0.0 | 0.0 | 0.00 | 0.00 | 0.00 | 100 | |
| 20260906125402 | 58 | 60 | 0.0 | 0.0 | 0.00 | 0.00 | 0.00 | 100 | |
| 20260906124902 | 58 | 60 | 0.0 | 0.0 | 0.00 | 0.00 | 0.00 | 100 | |
| 20260906124402 | 58 | 60 | 0.0 | 1.7 | 0.00 | 0.00 | 0.00 | 100 | |
| 20260906123902 | 59 | 60 | 1.7 | 5.2 | 0.00 | 0.00 | 0.00 | 100 | |
| 20260906123402 | 59 | 113 | 1.7 | 1.7 | 0.00 | 0.00 | 0.00 | 100 | |
| 20260906122902 | 59 | 54 | 0.0 | 0.0 | 0.00 | 0.00 | 0.00 | 100 | |
| 20260906122402 | 58 | 54 | 0.0 | 0.0 | 0.00 | 0.00 | 0.00 | 100 | |
| 20260906121902 | 59 | 54 | 0.0 | 0.0 | 0.00 | 0.00 | 0.00 | 100 | |
| 20260906121402 | 60 | 54 | 0.0 | 0.0 | 0.00 | 0.00 | 0.00 | 100 | |
| 20260906120902 | 59 | 54 | 0.0 | 1.7 | 0.00 | 0.00 | 0.00 | 100 | |
| 20260906120402 | 59 | 64 | 0.0 | 0.0 | 0.00 | 0.00 | 0.00 | 100 | |
| 20260906115902 | 59 | 64 | 0.0 | 0.0 | 0.00 | 0.00 | 0.00 | 100 | |
| 20260906115402 | 59 | 64 | 0.0 | 0.0 | 0.00 | 0.00 | 0.00 | 100 | |
| 20260906114902 | 59 | 64 | 0.0 | 0.0 | 0.00 | 0.00 | 0.00 | 100 | |
| 20260906114402 | 60 | 64 | 0.0 | 3.5 | 0.00 | 0.00 | 0.00 | 100 | |
| 20260906113902 | 60 | 68 | 0.0 | 4.3 | 0.00 | 0.00 | 0.00 | 100 | |
| 20260906113402 | 60 | 47 | 0.0 | 2.6 | 0.00 | 0.00 | 0.00 | 100 | |
| 20260906112902 | 60 | 61 | 1.7 | 3.5 | 0.00 | 0.00 | 0.00 | 100 | |
| 20260906112402 | 60 | 47 | 0.0 | 2.6 | 0.00 | 0.00 | 0.00 | 100 | |
| 20260906111902 | 60 | 42 | 0.0 | 0.9 | 0.00 | 0.00 | 0.00 | 100 | |
| 20260906111402 | 60 | 60 | 0.0 | 0.0 | 0.00 | 0.00 | 0.00 | 100 | |
| 20260906110902 | 59 | 60 | 0.0 | 2.6 | 0.00 | 0.00 | 0.00 | 100 | |
| 20260906110402 | 59 | 57 | 0.0 | 1.7 | 0.00 | 0.00 | 0.00 | 100 | |
| 20260906105902 | 60 | 64 | 0.0 | 0.0 | 0.00 | 0.00 | 0.00 | 100 | |
| 20260906105402 | 60 | 64 | 0.0 | 0.0 | 0.00 | 0.00 | 0.00 | 100 | |
| 20260906104902 | 60 | 64 | 0.0 | 0.0 | 0.00 | 0.00 | 0.00 | 100 | |
| 20260906104402 | 60 | 64 | 0.0 | 0.0 | 0.00 | 0.00 | 0.00 | 100 | |
| 20260906103902 | 60 | 64 | 0.0 | 0.0 | 0.00 | 0.00 | 0.00 | 100 | |
| 20260906103402 | 60 | 64 | 0.0 | 0.0 | 0.00 | 0.00 | 0.00 | 100 | |
| 20260906102902 | 62 | 64 | 0.0 | 0.0 | 0.00 | 0.00 | 0.00 | 100 | |
| 20260906102402 | 62 | 64 | 0.0 | 2.6 | 0.00 | 0.00 | 0.00 | 100 | |
| 20260906101902 | 63 | 85 | 2.6 | 4.3 | 0.00 | 0.00 | 0.00 | 100 | |
| 20260906101402 | 64 | 56 | 2.6 | 4.3 | 0.00 | 0.00 | 0.00 | 100 | |
| 20260906100902 | 63 | 104 | 2.6 | 4.3 | 0.00 | 0.00 | 0.00 | 100 | |
| 20260906100402 | 61 | 99 | 0.0 | 0.0 | 0.00 | 0.00 | 0.00 | 100 | |
| 20260906095902 | 60 | 99 | 0.0 | 0.0 | 0.00 | 0.00 | 0.00 | 100 | |
| 20260906095402 | 61 | 99 | 0.0 | 0.0 | 0.00 | 0.00 | 0.00 | 100 | |
| 20260906094902 | 60 | 99 | 0.0 | 0.0 | 0.00 | 0.00 | 0.00 | 100 | |
| 20260906094403 | 62 | 99 | 0.0 | 0.0 | 0.00 | 0.00 | 0.00 | 100 | |
| 20260906093902 | 62 | 99 | 0.0 | 0.0 | 0.00 | 0.00 | 0.00 | 100 | |
| 20260906093402 | 62 | 99 | 0.0 | 0.0 | 0.00 | 0.00 | 0.00 | 100 | |
| 20260906092902 | 61 | 99 | 0.0 | 1.7 | 0.00 | 0.00 | 0.00 | 100 | |
| 20260906092402 | 62 | 68 | 0.0 | 0.0 | 0.00 | 0.00 | 0.00 | 100 | |
| 20260906091902 | 63 | 68 | 0.0 | 0.0 | 0.00 | 0.00 | 0.00 | 100 | |
| 20260906091402 | 63 | 68 | 0.0 | 3.5 | 0.00 | 0.00 | 0.00 | 100 | |
| 20260906090902 | 61 | 334 | 0.0 | 0.0 | 0.00 | 0.00 | 0.00 | 100 | |
| 20260906090402 | 61 | 334 | 0.0 | 0.0 | 0.00 | 0.00 | 0.00 | 100 | |
| 20260906085902 | 60 | 334 | 0.0 | 0.0 | 0.00 | 0.00 | 0.00 | 100 | |
| 20260906085402 | 62 | 334 | 0.0 | 0.0 | 0.00 | 0.00 | 0.00 | 100 | |
| 20260906084902 | 62 | 334 | 0.0 | 0.0 | 0.00 | 0.00 | 0.00 | 100 | |
| 20260906084402 | 62 | 334 | 0.0 | 0.0 | 0.00 | 0.00 | 0.00 | 100 | |
| 20260906083902 | 61 | 334 | 0.0 | 0.0 | 0.00 | 0.00 | 0.00 | 100 | |
| 20260906083402 | 61 | 334 | 0.0 | 0.0 | 0.00 | 0.00 | 0.00 | 100 | |
| 20260906082902 | 60 | 334 | 0.0 | 0.0 | 0.00 | 0.00 | 0.00 | 100 | |
| 20260906082402 | 60 | 334 | 0.0 | 0.0 | 0.00 | 0.00 | 0.00 | 100 | |
| 20260906081902 | 62 | 334 | 0.0 | 0.0 | 0.00 | 0.00 | 0.00 | 100 | |
| 20260906081402 | 61 | 334 | 0.0 | 0.0 | 0.00 | 0.00 | 0.00 | 100 | |
| 20260906080902 | 61 | 334 | 0.0 | 0.0 | 0.00 | 0.00 | 0.00 | 100 | |
| 20260906080402 | 62 | 334 | 0.0 | 0.0 | 0.00 | 0.00 | 0.00 | 100 | |
| 20260906075902 | 62 | 334 | 0.0 | 0.0 | 0.00 | 0.00 | 0.00 | 100 | |
| 20260906075402 | 62 | 334 | 0.0 | 0.0 | 0.00 | 0.00 | 0.00 | 100 | |
| 20260906074902 | 63 | 334 | 0.0 | 0.0 | 0.00 | 0.00 | 0.00 | 100 | |
| 20260906074402 | 64 | 334 | 0.0 | 0.0 | 0.00 | 0.00 | 0.00 | 100 | |
| 20260906073902 | 64 | 334 | 0.0 | 0.0 | 0.00 | 0.00 | 0.00 | 100 | |
| 20260906073402 | 64 | 334 | 0.0 | 0.0 | 0.00 | 0.00 | 0.00 | 100 | |
| 20260906072902 | 65 | 334 | 0.0 | 0.0 | 0.00 | 0.00 | 0.00 | 100 | |
| 20260906072402 | 65 | 334 | 0.0 | 0.0 | 0.00 | 0.00 | 0.00 | 100 | |
| 20260906071902 | 65 | 334 | 0.0 | 0.0 | 0.00 | 0.00 | 0.00 | 100 | |
| 20260906071402 | 64 | 334 | 0.0 | 0.0 | 0.00 | 0.00 | 0.00 | 100 | |
| 20260906070902 | 66 | 334 | 0.0 | 0.0 | 0.00 | 0.00 | 0.00 | 100 | |
| 20260906070402 | 66 | 334 | 0.0 | 0.0 | 0.00 | 0.00 | 0.00 | 100 | |
| 20260906065902 | 67 | 334 | 0.0 | 0.0 | 0.00 | 0.00 | 0.00 | 100 | |
| 20260906065402 | 67 | 334 | 0.0 | 0.0 | 0.00 | 0.00 | 0.00 | 100 | |
| 20260906064902 | 67 | 334 | 0.0 | 0.0 | 0.00 | 0.00 | 0.00 | 100 | |
| 20260906064402 | 67 | 334 | 0.0 | 0.0 | 0.00 | 0.00 | 0.00 | 100 | |
| 20260906063902 | 66 | 334 | 0.0 | 0.0 | 0.00 | 0.00 | 0.00 | 100 | |
| 20260906063402 | 64 | 334 | 0.0 | 0.0 | 0.00 | 0.00 | 0.00 | 100 | |
| 20260906062902 | 65 | 334 | 0.0 | 0.0 | 0.00 | 0.00 | 0.00 | 100 | |
| 20260906062402 | 66 | 334 | 0.0 | 0.0 | 0.00 | 0.00 | 0.00 | 100 | |
| 20260906061902 | 68 | 334 | 0.0 | 0.0 | 0.00 | 0.00 | 0.00 | 100 | |
| 20260906061402 | 69 | 334 | 0.0 | 0.0 | 0.00 | 0.00 | 0.00 | 100 | |
| 20260906060902 | 68 | 334 | 0.0 | 0.0 | 0.00 | 0.00 | 0.00 | 100 | |
| 20260906060402 | 69 | 334 | 0.0 | 0.0 | 0.00 | 0.00 | 0.00 | 100 | |
| 20260906055902 | 69 | 334 | 0.0 | 0.0 | 0.00 | 0.00 | 0.00 | 100 | |
| 20260906055402 | 70 | 334 | 0.0 | 0.0 | 0.00 | 0.00 | 0.00 | 100 | |
| 20260906054902 | 70 | 334 | 0.0 | 0.0 | 0.00 | 0.00 | 0.00 | 100 | |
| 20260906054402 | 69 | 334 | 0.0 | 0.0 | 0.00 | 0.00 | 0.00 | 100 | |
| 20260906053902 | 69 | 334 | 0.0 | 0.0 | 0.00 | 0.00 | 0.00 | 100 | |
| 20260906053402 | 70 | 334 | 0.0 | 0.0 | 0.00 | 0.00 | 0.00 | 100 | |
| 20260906052902 | 70 | 334 | 0.0 | 0.0 | 0.00 | 0.00 | 0.00 | 100 | |
| 20260906052402 | 71 | 334 | 0.0 | 0.0 | 0.00 | 0.00 | 0.00 | 100 | |
| 20260906051902 | 70 | 334 | 0.0 | 0.0 | 0.00 | 0.00 | 0.00 | 100 | |
| 20260906051402 | 72 | 334 | 0.0 | 0.0 | 0.00 | 0.00 | 0.00 | 100 | |
| 20260906050902 | 71 | 334 | 0.0 | 0.0 | 0.00 | 0.00 | 0.00 | 100 | |
| 20260906050402 | 72 | 334 | 0.0 | 0.0 | 0.00 | 0.00 | 0.00 | 100 | |
| 20260906045902 | 71 | 334 | 0.0 | 0.0 | 0.00 | 0.00 | 0.00 | 100 | |
| 20260906045402 | 71 | 334 | 0.0 | 0.0 | 0.00 | 0.00 | 0.00 | 100 | |
| 20260906044902 | 73 | 334 | 0.0 | 0.0 | 0.00 | 0.00 | 0.00 | 100 | |
| 20260906044402 | 71 | 334 | 0.0 | 0.0 | 0.00 | 0.00 | 0.00 | 100 | |
| 20260906043902 | 72 | 334 | 0.0 | 0.0 | 0.00 | 0.00 | 0.00 | 100 | |
| 20260906043402 | 72 | 334 | 0.0 | 0.0 | 0.00 | 0.00 | 0.00 | 100 | |
| 20260906042902 | 71 | 334 | 0.0 | 0.0 | 0.00 | 0.00 | 0.00 | 100 | |
| 20260906042402 | 73 | 334 | 0.0 | 0.0 | 0.00 | 0.00 | 0.00 | 100 | |
| 20260906041902 | 73 | 334 | 0.0 | 0.0 | 0.00 | 0.00 | 0.00 | 100 | |
| 20260906041402 | 72 | 334 | 0.0 | 0.0 | 0.00 | 0.00 | 0.00 | 100 | |
| 20260906040902 | 72 | 334 | 0.0 | 0.0 | 0.00 | 0.00 | 0.00 | 100 | |
| 20260906040402 | 71 | 334 | 0.0 | 0.0 | 0.00 | 0.00 | 0.00 | 100 | |
| 20260906035902 | 73 | 334 | 0.0 | 0.0 | 0.00 | 0.00 | 0.00 | 100 | |
| 20260906035402 | 72 | 334 | 0.0 | 0.0 | 0.00 | 0.00 | 0.00 | 100 | |
| 20260906034902 | 73 | 334 | 0.0 | 0.0 | 0.00 | 0.00 | 0.00 | 100 | |
| 20260906034402 | 72 | 334 | 0.0 | 0.0 | 0.00 | 0.00 | 0.00 | 100 | |
| 20260906033902 | 73 | 334 | 0.0 | 0.0 | 0.00 | 0.00 | 0.00 | 100 | |
| 20260906033402 | 74 | 334 | 0.0 | 0.0 | 0.00 | 0.00 | 0.00 | 100 | |
| 20260906032902 | 74 | 334 | 0.0 | 0.0 | 0.00 | 0.00 | 0.00 | 100 | |
| 20260906032402 | 73 | 334 | 0.0 | 0.0 | 0.00 | 0.00 | 0.00 | 100 | |
| 20260906031902 | 74 | 334 | 0.0 | 0.0 | 0.00 | 0.00 | 0.00 | 100 | |
| 20260906031402 | 74 | 334 | 0.0 | 0.0 | 0.00 | 0.00 | 0.00 | 100 | |
| 20260906030902 | 74 | 334 | 0.0 | 0.0 | 0.00 | 0.00 | 0.00 | 100 | |
| 20260906030402 | 75 | 334 | 0.0 | 0.0 | 0.00 | 0.00 | 0.00 | 100 | |
| 20260906025902 | 74 | 334 | 0.0 | 0.0 | 0.00 | 0.00 | 0.00 | 100 | |
| 20260906025402 | 74 | 334 | 0.0 | 0.0 | 0.00 | 0.00 | 0.00 | 100 | |
| 20260906024902 | 75 | 334 | 0.0 | 0.0 | 0.00 | 0.00 | 0.00 | 100 | |
| 20260906024402 | 76 | 334 | 0.0 | 0.0 | 0.00 | 0.00 | 0.00 | 100 | |
| 20260906023902 | 76 | 334 | 0.0 | 0.0 | 0.00 | 0.00 | 0.00 | 100 | |
| 20260906023402 | 76 | 334 | 0.0 | 0.0 | 0.00 | 0.00 | 0.00 | 100 | |
| 20260906022902 | 76 | 334 | 0.0 | 0.0 | 0.00 | 0.00 | 0.00 | 100 | |
| 20260906022402 | 76 | 334 | 0.0 | 0.0 | 0.00 | 0.00 | 0.00 | 100 | |
| 20260906021902 | 76 | 334 | 0.0 | 0.0 | 0.00 | 0.00 | 0.00 | 100 | |
| 20260906021402 | 77 | 334 | 0.0 | 0.0 | 0.00 | 0.00 | 0.00 | 100 | |
| 20260906020902 | 77 | 334 | 0.0 | 0.0 | 0.00 | 0.00 | 0.00 | 100 | |
| 20260906020402 | 77 | 334 | 0.0 | 0.0 | 0.00 | 0.00 | 0.00 | 100 | |
| 20260906015903 | 79 | 334 | 0.0 | 0.0 | 0.00 | 0.00 | 0.00 | 100 | |
| 20260906015402 | 78 | 334 | 0.0 | 0.0 | 0.00 | 0.00 | 0.00 | 100 | |
| 20260906014903 | 79 | 334 | 0.0 | 0.0 | 0.00 | 0.00 | 0.00 | 100 | |
| 20260906014402 | 80 | 334 | 0.0 | 0.0 | 0.00 | 0.00 | 0.00 | 100 | |
| 20260906013903 | 81 | 334 | 0.0 | 2.6 | 0.00 | 0.00 | 0.00 | 100 | |
| 20260906013403 | 80 | 254 | 0.0 | 0.0 | 0.00 | 0.00 | 0.00 | 100 | |
| 20260906012903 | 80 | 254 | 0.0 | 0.0 | 0.00 | 0.00 | 0.00 | 100 | |
| 20260906012403 | 81 | 254 | 0.0 | 0.0 | 0.00 | 0.00 | 0.00 | 100 | |
| 20260906011903 | 81 | 254 | 0.0 | 0.0 | 0.00 | 0.00 | 0.00 | 100 | |
| 20260906011403 | 81 | 254 | 0.0 | 0.0 | 0.00 | 0.00 | 0.00 | 100 | |
| 20260906010903 | 82 | 254 | 0.0 | 0.0 | 0.00 | 0.00 | 0.00 | 100 | |
| 20260906010403 | 83 | 254 | 0.0 | 0.0 | 0.00 | 0.00 | 0.00 | 100 | |
| 20260906005903 | 82 | 254 | 0.0 | 0.0 | 0.00 | 0.00 | 0.00 | 100 | |
| 20260906005403 | 83 | 254 | 0.0 | 5.2 | 0.00 | 0.00 | 0.00 | 100 | |
| 20260906004903 | 83 | 182 | 0.0 | 0.0 | 0.00 | 0.00 | 0.00 | 100 | |
| 20260906004403 | 83 | 182 | 0.0 | 7.0 | 0.00 | 0.00 | 0.00 | 100 | |
| 20260906003903 | 83 | 244 | 0.0 | 2.6 | 0.00 | 0.00 | 0.00 | 100 | |
| 20260906003403 | 83 | 213 | 0.0 | 3.5 | 0.00 | 0.00 | 0.00 | 100 | |
| 20260906002903 | 83 | 260 | 0.0 | 7.0 | 0.00 | 0.00 | 0.00 | 100 | |
| 20260906002403 | 83 | 267 | 4.3 | 5.2 | 0.00 | 0.00 | 0.00 | 100 | |
| 20260906001903 | 83 | 336 | 2.6 | 7.0 | 0.00 | 0.00 | 0.00 | 100 | |
| 20260906001403 | 83 | 300 | 2.6 | 6.1 | 0.00 | 0.00 | 0.00 | 100 | |
| 20260906000903 | 86 | 267 | 0.0 | 8.7 | 0.00 | 0.00 | 0.00 | 100 | |
| 20260906000403 | 86 | 208 | 2.6 | 4.3 | 0.00 | 0.00 | 0.00 | 100 | |
| 20260905235903 | 85 | 244 | 0.0 | 7.8 | 0.00 | 0.00 | 0.00 | 100 | |
| 20260905235403 | 85 | 285 | 0.0 | 14.8 | 0.00 | 0.00 | 0.00 | 100 | |
| 20260905234903 | 84 | 358 | 6.1 | 10.4 | 0.00 | 0.00 | 0.00 | 100 | |
| 20260905234403 | 84 | 289 | 5.2 | 11.3 | 0.00 | 0.00 | 0.00 | 100 | |
| 20260905233903 | 84 | 331 | 4.3 | 11.3 | 0.00 | 0.00 | 0.00 | 100 | |
| 20260905233403 | 85 | 289 | 0.0 | 10.4 | 0.00 | 0.00 | 0.00 | 100 | |
| 20260905232903 | 86 | 257 | 7.0 | 13.0 | 0.00 | 0.00 | 0.00 | 100 | |
| 20260905232403 | 87 | 292 | 4.3 | 13.9 | 0.00 | 0.00 | 0.00 | 100 | |
| 20260905231903 | 86 | 295 | 7.8 | 10.4 | 0.00 | 0.00 | 0.00 | 100 |